Weather History for Montreal, QC

Change the Weather History Date:

Friday, February 8, 2013

  Actual Average Record
Temperature  
Mean Temperature 6 °F -  
Max Temperature 12 °F 23 °F 42 °F (2009)
Min Temperature 0 °F 7 °F -2 °F (1997)
Degree Days  
Heating Degree Days 59    
Moisture  
Dew Point -0 °F    
Average Humidity 71    
Maximum Humidity 85    
Minimum Humidity 38    
Precipitation  
Precipitation 0.28 in - - ()
Sea Level Pressure  
Sea Level Pressure 30.28 in    
Wind  
Wind Speed 20 mph ()    
Max Wind Speed 31 mph    
Max Gust Speed 38 mph    
Visibility 2.2 miles    
Events Snow    
Averages and records for this station are not official NWS values.
T = Trace of Precipitation, MM = Missing Value Source: Averaged Metar Reports

Daily Weather History Graph

Daily Weather History Graph

Search for Another Location

Airport:

Trip Planner

Search our weather history database for the weather conditions in past years. The results will help you decide how hot, cold, wet, or windy it might be!

Date:

Astronomy

Feb. 08, 2013 Rise Set
Actual Time 7:06 AM EST 5:12 PM EST
Civil Twilight 6:35 AM EST 5:43 PM EST
Nautical Twilight 6:00 AM EST 6:18 PM EST
Astronomical Twilight 5:26 AM EST 6:52 PM EST
Moon 5:35 AM EST (2/8) 3:41 PM EST (2/8)
Length of Visible Light 11h 07m
Length of Day
10h 05m
Waning Crescent, 3% of the Moon is Illuminated
Feb 8
Waning Crescent
Feb 10
New
Feb 17
First Quarter
Feb 25
Full
Mar 4
Last Quarter

Hourly Weather History & Observations

Time (EST) Temp. Windchill Dew Point Humidity Pressure Visibility Wind Dir Wind Speed Gust Speed Precip Events Conditions
12:00 AM 1.4 °F -17.6 °F -14.8 °F 47% 30.49 in 15.0 mi NNE 15.0 mph - N/A   Overcast
12:21 AM 1.4 °F -18.8 °F - N/A% - 15.0 mi NNE 17.3 mph - N/A Snow Light Snow
1:00 AM 1 °F - -12 °F 38% 30.47 in 6 mi NNE 17.3 mph - - Snow Light Snow
1:00 AM 1.4 °F -18.2 °F -11.2 °F 56% 30.47 in 6.0 mi NE 16.1 mph - N/A Snow Light Snow
2:00 AM 1.4 °F -17.6 °F -7.6 °F 66% 30.47 in 1.8 mi NNE 15.0 mph - N/A Snow Light Snow
3:00 AM 1.4 °F -18.2 °F -7.6 °F 66% 30.44 in 1.8 mi NNE 16.1 mph - N/A Snow Light Snow
3:47 AM 1.4 °F -19.9 °F - N/A% - 3.0 mi NE 19.6 mph 26.5 mph N/A Snow Light Snow
4:00 AM 1.4 °F -17.6 °F -5.8 °F 72% 30.41 in 2.5 mi NNE 15.0 mph 23.0 mph N/A Snow Light Snow
4:48 AM 1.4 °F -19.4 °F - N/A% - 4.0 mi NNE 18.4 mph - N/A Snow Light Snow
5:00 AM 1.4 °F -18.2 °F -5.8 °F 72% 30.39 in 3.0 mi NNE 16.1 mph - N/A Snow Light Snow
5:21 AM 1.4 °F -19.9 °F - N/A% - 1.8 mi NE 19.6 mph - N/A Snow Light Snow
6:00 AM 1.4 °F -20.5 °F -5.8 °F 72% 30.37 in 1.2 mi NNE 20.7 mph - N/A Snow Light Snow
7:00 AM 1 °F - -6 °F 61% 30.36 in 1 mi NNE 21.9 mph - - Snow Light Snow
7:00 AM 1.4 °F -21.0 °F -5.8 °F 72% 30.36 in 1.0 mi NNE 21.9 mph 27.6 mph N/A Snow Light Snow
7:21 AM 1.4 °F -21.4 °F - N/A% - 0.8 mi NNE 23.0 mph - N/A Snow Light Snow
7:32 AM 1.4 °F -21.0 °F - N/A% - 0.6 mi NNE 21.9 mph - N/A Snow Light Snow
8:00 AM 1.4 °F -21.9 °F -4.0 °F 78% 30.35 in 0.6 mi NNE 24.2 mph - N/A Snow Light Snow
8:26 AM 3.2 °F -18.1 °F - N/A% - 0.6 mi NNE 20.7 mph 27.6 mph N/A Snow Light Snow
8:42 AM 3.2 °F -18.1 °F - N/A% - 0.5 mi NNE 20.7 mph 27.6 mph N/A Snow Light Snow
9:00 AM 3.2 °F -18.6 °F -4.0 °F 72% 30.34 in 0.6 mi NNE 21.9 mph 27.6 mph N/A Snow Light Snow
10:00 AM 5.0 °F -15.7 °F -2.2 °F 72% 30.32 in 0.6 mi NNE 20.7 mph - N/A Snow Light Snow
11:00 AM 6.8 °F -13.4 °F -0.4 °F 72% 30.30 in 0.6 mi NNE 20.7 mph 26.5 mph N/A Snow Light Snow
12:00 PM 8.6 °F -13.1 °F 1.4 °F 73% 30.27 in 0.6 mi NNE 26.5 mph 33.4 mph N/A Snow Light Snow
1:00 PM 9 °F - 4 °F 71% 30.24 in 1 mi NNE 20.7 mph - - Snow Light Snow
1:00 PM 8.6 °F -12.7 °F 3.2 °F 79% 30.24 in 0.6 mi NE 25.3 mph 33.4 mph N/A Snow Light Snow
2:00 PM 10.4 °F -10.7 °F 5.0 °F 79% 30.20 in 0.8 mi NNE 26.5 mph 32.2 mph N/A Snow Light Snow
2:43 PM 10.4 °F -10.7 °F - N/A% - 1.2 mi NE 26.5 mph 32.2 mph N/A Snow Light Snow
2:54 PM 10.4 °F -10.7 °F - N/A% - 0.6 mi NE 26.5 mph 35.7 mph N/A Snow Light Snow
3:00 PM 10.4 °F -11.0 °F 6.8 °F 85% 30.18 in 0.6 mi NE 27.6 mph 35.7 mph N/A Snow Light Snow
3:22 PM 10.4 °F -11.4 °F - N/A% - 0.8 mi NE 28.8 mph 34.5 mph N/A Snow Light Snow
3:35 PM 10.4 °F -11.4 °F - N/A% - 0.6 mi NE 28.8 mph 38.0 mph N/A Snow Light Snow
4:00 PM 12.2 °F -7.9 °F 6.8 °F 79% 30.15 in 1.0 mi NNE 25.3 mph 33.4 mph N/A Snow Light Snow
4:42 PM 12.2 °F -8.2 °F - N/A% - 0.8 mi NNE 26.5 mph 34.5 mph N/A Snow Light Snow
5:00 PM 12.2 °F -7.5 °F 6.8 °F 79% 30.14 in 0.6 mi NE 24.2 mph 34.5 mph N/A Snow Light Snow
5:09 PM 12.2 °F -8.2 °F - N/A% - 0.8 mi NNE 26.5 mph 34.5 mph N/A Snow Light Snow
5:36 PM 12.2 °F -8.6 °F - N/A% - 1.2 mi NNE 27.6 mph 34.5 mph N/A Snow Light Snow
6:00 PM 12.2 °F -8.6 °F 6.8 °F 79% 30.14 in 1.0 mi NNE 27.6 mph 35.7 mph N/A Snow Light Snow
6:18 PM 12.2 °F -8.9 °F - N/A% - 1.5 mi NE 28.8 mph - N/A Snow Light Snow
6:41 PM 12.2 °F -8.6 °F - N/A% - 1.0 mi NNE 27.6 mph 34.5 mph N/A Snow Light Snow
6:53 PM 12.2 °F -8.6 °F - N/A% - 1.2 mi NNE 27.6 mph 38.0 mph N/A Snow Light Snow
7:00 PM 12 °F - 7 °F 71% 30.14 in 1 mi NNE 25.3 mph - - Snow Light Snow
7:00 PM 12.2 °F -7.1 °F 6.8 °F 79% 30.14 in 1.0 mi NNE 23.0 mph 38.0 mph N/A Snow Light Snow
7:20 PM 12.2 °F -8.6 °F - N/A% - 1.2 mi NNE 27.6 mph 34.5 mph N/A Snow Light Snow
7:35 PM 12.2 °F -9.3 °F - N/A% - 1.5 mi NNE 29.9 mph - N/A Snow Light Snow
8:00 PM 12.2 °F -8.6 °F 6.8 °F 79% 30.14 in 1.5 mi NE 27.6 mph 33.4 mph N/A Snow Light Snow
9:00 PM 12.2 °F -7.9 °F 6.8 °F 79% 30.14 in 1.5 mi NE 25.3 mph 33.4 mph N/A Snow Light Snow
9:30 PM 12.2 °F -7.5 °F - N/A% - 4.0 mi NE 24.2 mph 34.5 mph N/A Snow Light Snow
10:00 PM 12.2 °F -8.2 °F 6.8 °F 79% 30.15 in 6.0 mi NE 26.5 mph 33.4 mph N/A Snow Light Snow
11:00 PM 12.2 °F -9.6 °F 5.0 °F 73% 30.14 in 6.0 mi NNE 31.1 mph 38.0 mph N/A Snow Light Snow